Location: Cisewo
(53.3833°N, 14.9000°E)
Time: 12:44:59
(UTC+00:00)

USA 229 - Pass Details

Date: 06 August 2021
Orbit: 956 x 1256 km, 63.5° (Epoch: 08 August)

Event Time Altitude Azimuth Distance (km) Brightness Sun altitude
Rises 21:48:41 0° 310° (NW) 3,988 7.7 -18.2°
Reaches altitude 10° 21:51:55 10° 297° (WNW) 3,073 6.7 -18.4°
Maximum altitude 21:57:24 23° 249° (WSW) 2,305 5.4 -18.6°
Enters shadow 22:01:40 14° 209° (SSW) 2,848 5.5 -18.8°
